Time,TemperatureF,DewpointF,PressureIn,WindDirection,WindDirectionDegrees,WindSpeedMPH,WindSpeedGustMPH,Humidity,HourlyPrecipIn,Conditions,Clouds,dailyrainin,SoftwareType,DateUTC
2013-01-20 00:01:00,52.1,21.0,30.12,SW,225,0.0,0.0,28,0.00,,,0.00,Rainwise IP-100,2013-01-20 08:01:00,
2013-01-20 00:06:00,52.9,18.0,30.13,SW,225,0.0,0.0,25,0.00,,,0.00,Rainwise IP-100,2013-01-20 08:06:00,
2013-01-20 00:11:00,52.7,18.0,30.12,SW,225,0.0,0.0,26,0.00,,,0.00,Rainwise IP-100,2013-01-20 08:11:00,
2013-01-20 00:16:00,52.1,21.0,30.12,SW,225,0.0,0.0,27,0.00,,,0.00,Rainwise IP-100,2013-01-20 08:16:00,
2013-01-20 00:21:00,52.0,21.0,30.12,SW,225,0.0,0.0,27,0.00,,,0.00,Rainwise IP-100,2013-01-20 08:21:00,
2013-01-20 00:26:00,52.3,18.0,30.12,SW,225,0.0,0.0,26,0.00,,,0.00,Rainwise IP-100,2013-01-20 08:26:00,
2013-01-20 00:31:00,52.8,18.0,30.12,SW,225,0.0,0.0,25,0.00,,,0.00,Rainwise IP-100,2013-01-20 08:31:00,
2013-01-20 00:36:00,52.9,18.0,30.12,SW,225,0.0,0.0,25,0.00,,,0.00,Rainwise IP-100,2013-01-20 08:36:00,
2013-01-20 00:38:00,52.8,18.0,30.12,SW,225,0.0,0.0,25,0.00,,,0.00,Rainwise IP-100,2013-01-20 08:38:00,
2013-01-20 00:44:00,53.0,18.0,30.12,SW,225,0.0,0.0,24,0.00,,,0.00,Rainwise IP-100,2013-01-20 08:44:00,
2013-01-20 00:49:00,53.1,18.0,30.12,SW,225,0.0,0.0,24,0.00,,,0.00,Rainwise IP-100,2013-01-20 08:49:00,
2013-01-20 00:53:00,53.2,16.0,30.12,SW,225,0.0,0.0,23,0.00,,,0.00,Rainwise IP-100,2013-01-20 08:53:00,
2013-01-20 00:58:00,53.3,16.0,30.11,SW,225,0.0,0.0,23,0.00,,,0.00,Rainwise IP-100,2013-01-20 08:58:00,
2013-01-20 01:03:00,53.3,18.0,30.11,SW,225,0.0,0.0,24,0.00,,,0.00,Rainwise IP-100,2013-01-20 09:03:00,
2013-01-20 01:08:00,53.8,16.0,30.11,SW,225,0.0,0.0,22,0.00,,,0.00,Rainwise IP-100,2013-01-20 09:08:00,
2013-01-20 01:13:00,53.9,16.0,30.11,SW,225,0.0,0.0,22,0.00,,,0.00,Rainwise IP-100,2013-01-20 09:13:00,
2013-01-20 01:18:00,53.2,16.0,30.11,SW,225,0.0,0.0,23,0.00,,,0.00,Rainwise IP-100,2013-01-20 09:18:00,
2013-01-20 01:23:00,52.6,18.0,30.11,ESE,112,0.0,1.9,25,0.00,,,0.00,Rainwise IP-100,2013-01-20 09:23:00,
2013-01-20 01:28:00,51.9,18.0,30.11,NE,45,0.0,0.0,26,0.00,,,0.00,Rainwise IP-100,2013-01-20 09:28:00,
2013-01-20 01:33:00,52.5,18.0,30.11,NNE,22,0.0,0.0,24,0.00,,,0.00,Rainwise IP-100,2013-01-20 09:33:00,
2013-01-20 01:38:00,54.9,16.0,30.11,NNE,22,0.0,1.4,21,0.00,,,0.00,Rainwise IP-100,2013-01-20 09:38:00,
2013-01-20 01:43:00,56.0,16.0,30.11,NNE,22,0.0,0.0,20,0.00,,,0.00,Rainwise IP-100,2013-01-20 09:43:00,
2013-01-20 01:48:00,54.6,16.0,30.11,NNE,22,0.0,0.0,22,0.00,,,0.00,Rainwise IP-100,2013-01-20 09:48:00,
2013-01-20 01:53:00,53.3,18.0,30.11,NNE,22,0.0,0.0,24,0.00,,,0.00,Rainwise IP-100,2013-01-20 09:53:00,
2013-01-20 01:58:00,52.6,18.0,30.11,NNE,22,0.0,0.0,25,0.00,,,0.00,Rainwise IP-100,2013-01-20 09:58:00,
2013-01-20 02:03:00,52.8,18.0,30.11,NNE,22,0.0,0.0,24,0.00,,,0.00,Rainwise IP-100,2013-01-20 10:03:00,
2013-01-20 02:08:00,53.6,16.0,30.11,NNE,22,0.0,0.0,22,0.00,,,0.00,Rainwise IP-100,2013-01-20 10:08:00,
2013-01-20 02:13:00,53.1,18.0,30.11,NNE,22,0.0,0.0,25,0.00,,,0.00,Rainwise IP-100,2013-01-20 10:13:00,
2013-01-20 02:18:00,51.9,18.0,30.11,NNE,22,0.0,0.0,26,0.00,,,0.00,Rainwise IP-100,2013-01-20 10:18:00,
2013-01-20 02:23:00,51.0,18.0,30.11,NNE,22,0.0,0.0,26,0.00,,,0.00,Rainwise IP-100,2013-01-20 10:23:00,
2013-01-20 02:28:00,50.4,18.0,30.11,NNE,22,0.0,0.0,28,0.00,,,0.00,Rainwise IP-100,2013-01-20 10:28:00,
2013-01-20 02:33:00,49.5,21.0,30.11,NNE,22,0.0,1.2,31,0.00,,,0.00,Rainwise IP-100,2013-01-20 10:33:00,
2013-01-20 02:38:00,48.5,23.0,30.11,NNE,22,0.0,0.0,33,0.00,,,0.00,Rainwise IP-100,2013-01-20 10:38:00,
2013-01-20 02:43:00,48.3,21.0,30.11,NNE,22,0.0,0.0,33,0.00,,,0.00,Rainwise IP-100,2013-01-20 10:43:00,
2013-01-20 02:48:00,48.2,21.0,30.11,SSW,202,1.2,2.8,33,0.00,,,0.00,Rainwise IP-100,2013-01-20 10:48:00,
2013-01-20 02:53:00,48.0,23.0,30.11,SSW,202,0.0,2.8,34,0.00,,,0.00,Rainwise IP-100,2013-01-20 10:53:00,
2013-01-20 02:58:00,48.2,23.0,30.11,WSW,247,2.3,2.6,34,0.00,,,0.00,Rainwise IP-100,2013-01-20 10:58:00,
2013-01-20 03:03:00,49.4,21.0,30.10,WSW,247,0.0,2.8,31,0.00,,,0.00,Rainwise IP-100,2013-01-20 11:03:00,
2013-01-20 03:08:00,50.5,18.0,30.10,WSW,247,0.0,0.0,28,0.00,,,0.00,Rainwise IP-100,2013-01-20 11:08:00,
2013-01-20 03:13:00,50.0,18.0,30.10,WSW,247,0.0,0.0,28,0.00,,,0.00,Rainwise IP-100,2013-01-20 11:13:00,
2013-01-20 03:18:00,49.5,18.0,30.10,WSW,247,1.2,0.0,29,0.00,,,0.00,Rainwise IP-100,2013-01-20 11:18:00,
2013-01-20 03:23:00,49.8,18.0,30.10,WSW,247,0.0,3.5,29,0.00,,,0.00,Rainwise IP-100,2013-01-20 11:23:00,
2013-01-20 03:28:00,50.0,18.0,30.10,WSW,247,0.0,0.0,29,0.00,,,0.00,Rainwise IP-100,2013-01-20 11:28:00,
2013-01-20 03:33:00,49.2,18.0,30.10,WSW,247,0.0,0.0,29,0.00,,,0.00,Rainwise IP-100,2013-01-20 11:33:00,
2013-01-20 03:38:00,48.6,21.0,30.10,WSW,247,1.6,1.6,30,0.00,,,0.00,Rainwise IP-100,2013-01-20 11:38:00,
2013-01-20 03:43:00,49.4,18.0,30.10,WSW,247,2.1,3.3,29,0.00,,,0.00,Rainwise IP-100,2013-01-20 11:43:00,
2013-01-20 03:48:00,51.6,18.0,30.10,West,270,0.0,3.7,26,0.00,,,0.00,Rainwise IP-100,2013-01-20 11:48:00,
2013-01-20 03:53:00,52.4,16.0,30.10,West,270,0.0,0.0,24,0.00,,,0.00,Rainwise IP-100,2013-01-20 11:53:00,
2013-01-20 03:58:00,52.7,16.0,30.10,West,270,0.0,1.4,23,0.00,,,0.00,Rainwise IP-100,2013-01-20 11:58:00,
2013-01-20 04:03:00,52.9,16.0,30.10,West,270,0.0,0.0,22,0.00,,,0.00,Rainwise IP-100,2013-01-20 12:03:00,
2013-01-20 04:08:00,52.4,16.0,30.10,West,270,0.0,0.0,23,0.00,,,0.00,Rainwise IP-100,2013-01-20 12:08:00,
2013-01-20 04:13:00,51.7,16.0,30.10,West,270,0.0,1.4,23,0.00,,,0.00,Rainwise IP-100,2013-01-20 12:13:00,
2013-01-20 04:18:00,51.4,16.0,30.10,West,270,0.0,0.0,24,0.00,,,0.00,Rainwise IP-100,2013-01-20 12:18:00,
2013-01-20 04:23:00,50.6,18.0,30.09,West,270,0.0,0.0,26,0.00,,,0.00,Rainwise IP-100,2013-01-20 12:23:00,
2013-01-20 04:28:00,49.4,18.0,30.09,West,270,0.0,0.0,29,0.00,,,0.00,Rainwise IP-100,2013-01-20 12:28:00,
2013-01-20 04:33:00,48.3,21.0,30.09,West,270,0.0,0.0,31,0.00,,,0.00,Rainwise IP-100,2013-01-20 12:33:00,
2013-01-20 04:38:00,47.2,21.0,30.09,West,270,0.0,0.0,33,0.00,,,0.00,Rainwise IP-100,2013-01-20 12:38:00,
2013-01-20 04:43:00,46.5,21.0,30.09,West,270,0.0,0.0,34,0.00,,,0.00,Rainwise IP-100,2013-01-20 12:43:00,
2013-01-20 04:48:00,46.8,18.0,30.09,West,270,0.0,0.0,32,0.00,,,0.00,Rainwise IP-100,2013-01-20 12:48:00,
2013-01-20 04:53:00,47.6,18.0,30.09,West,270,0.0,0.0,29,0.00,,,0.00,Rainwise IP-100,2013-01-20 12:53:00,
2013-01-20 04:58:00,48.0,18.0,30.10,West,270,0.0,0.0,29,0.00,,,0.00,Rainwise IP-100,2013-01-20 12:58:00,
2013-01-20 05:03:00,48.0,18.0,30.09,West,270,0.0,0.0,29,0.00,,,0.00,Rainwise IP-100,2013-01-20 13:03:00,
2013-01-20 05:08:00,50.4,18.0,30.09,WSW,247,3.0,3.3,26,0.00,,,0.00,Rainwise IP-100,2013-01-20 13:08:00,
2013-01-20 05:13:00,53.9,18.0,30.10,WSW,247,2.6,3.5,23,0.00,,,0.00,Rainwise IP-100,2013-01-20 13:13:00,
2013-01-20 05:18:00,55.5,16.0,30.10,West,270,2.8,3.3,21,0.00,,,0.00,Rainwise IP-100,2013-01-20 13:18:00,
2013-01-20 05:23:00,54.8,18.0,30.10,SW,225,0.0,3.0,22,0.00,,,0.00,Rainwise IP-100,2013-01-20 13:23:00,
2013-01-20 05:28:00,52.9,18.0,30.10,SW,225,0.0,0.0,25,0.00,,,0.00,Rainwise IP-100,2013-01-20 13:28:00,
2013-01-20 05:33:00,51.5,18.0,30.09,SW,225,0.0,0.0,26,0.00,,,0.00,Rainwise IP-100,2013-01-20 13:33:00,
2013-01-20 05:38:00,51.1,18.0,30.10,SW,225,0.0,0.0,25,0.00,,,0.00,Rainwise IP-100,2013-01-20 13:38:00,
2013-01-20 05:43:00,50.4,18.0,30.10,SSE,157,0.0,0.0,28,0.00,,,0.00,Rainwise IP-100,2013-01-20 13:43:00,
2013-01-20 05:48:00,48.6,23.0,30.10,West,270,3.0,3.0,34,0.00,,,0.00,Rainwise IP-100,2013-01-20 13:48:00,
2013-01-20 05:53:00,46.9,23.0,30.10,West,270,0.0,3.7,36,0.00,,,0.00,Rainwise IP-100,2013-01-20 13:53:00,
2013-01-20 05:58:00,48.1,21.0,30.10,West,270,1.2,2.8,33,0.00,,,0.00,Rainwise IP-100,2013-01-20 13:58:00,
2013-01-20 06:03:00,50.0,18.0,30.10,West,270,0.0,2.1,29,0.00,,,0.00,Rainwise IP-100,2013-01-20 14:03:00,
2013-01-20 06:08:00,50.2,18.0,30.10,West,270,1.6,1.6,27,0.00,,,0.00,Rainwise IP-100,2013-01-20 14:08:00,
2013-01-20 06:13:00,51.4,18.0,30.10,West,270,0.0,2.8,25,0.00,,,0.00,Rainwise IP-100,2013-01-20 14:13:00,
2013-01-20 06:18:00,51.6,18.0,30.10,West,270,1.9,1.9,26,0.00,,,0.00,Rainwise IP-100,2013-01-20 14:18:00,
2013-01-20 06:23:00,50.6,18.0,30.10,West,270,0.0,2.1,27,0.00,,,0.00,Rainwise IP-100,2013-01-20 14:23:00,
2013-01-20 06:28:00,50.4,18.0,30.10,West,270,0.0,1.6,27,0.00,,,0.00,Rainwise IP-100,2013-01-20 14:28:00,
2013-01-20 06:33:00,50.4,18.0,30.10,WSW,247,0.0,1.4,28,0.00,,,0.00,Rainwise IP-100,2013-01-20 14:33:00,
2013-01-20 06:38:00,50.6,18.0,30.10,WSW,247,0.0,1.2,27,0.00,,,0.00,Rainwise IP-100,2013-01-20 14:38:00,
2013-01-20 06:43:00,50.3,21.0,30.10,WSW,247,0.0,1.4,29,0.00,,,0.00,Rainwise IP-100,2013-01-20 14:43:00,
2013-01-20 06:48:00,49.1,21.0,30.10,WSW,247,0.0,1.4,31,0.00,,,0.00,Rainwise IP-100,2013-01-20 14:48:00,
2013-01-20 06:53:00,48.3,21.0,30.10,WSW,247,1.4,1.4,32,0.00,,,0.00,Rainwise IP-100,2013-01-20 14:53:00,
2013-01-20 06:58:00,48.2,21.0,30.10,WSW,247,0.0,1.6,32,0.00,,,0.00,Rainwise IP-100,2013-01-20 14:58:00,
2013-01-20 07:03:00,48.3,21.0,30.11,WSW,247,0.0,0.0,31,0.00,,,0.00,Rainwise IP-100,2013-01-20 15:03:00,
2013-01-20 07:08:00,48.8,21.0,30.10,WSW,247,0.0,0.0,30,0.00,,,0.00,Rainwise IP-100,2013-01-20 15:08:00,
2013-01-20 07:13:00,50.0,18.0,30.10,West,270,1.2,2.6,28,0.00,,,0.00,Rainwise IP-100,2013-01-20 15:13:00,
2013-01-20 07:18:00,51.3,18.0,30.11,West,270,0.0,1.6,27,0.00,,,0.00,Rainwise IP-100,2013-01-20 15:18:00,
2013-01-20 07:23:00,51.8,21.0,30.11,West,270,0.0,1.4,27,0.00,,,0.00,Rainwise IP-100,2013-01-20 15:23:00,
2013-01-20 07:28:00,51.9,21.0,30.11,West,270,0.0,0.0,28,0.00,,,0.00,Rainwise IP-100,2013-01-20 15:28:00,
2013-01-20 07:33:00,52.9,21.0,30.11,West,270,0.0,1.9,27,0.00,,,0.00,Rainwise IP-100,2013-01-20 15:33:00,
2013-01-20 07:38:00,54.1,21.0,30.11,West,270,0.0,1.2,27,0.00,,,0.00,Rainwise IP-100,2013-01-20 15:38:00,
2013-01-20 07:43:00,53.7,24.0,30.12,West,270,0.0,0.0,31,0.00,,,0.00,Rainwise IP-100,2013-01-20 15:43:00,
2013-01-20 07:48:00,52.4,26.0,30.12,West,270,0.0,0.0,35,0.00,,,0.00,Rainwise IP-100,2013-01-20 15:48:00,
2013-01-20 07:53:00,51.8,26.0,30.12,West,270,0.0,0.0,37,0.00,,,0.00,Rainwise IP-100,2013-01-20 15:53:00,
2013-01-20 07:58:00,51.8,28.0,30.11,West,270,0.0,1.2,39,0.00,,,0.00,Rainwise IP-100,2013-01-20 15:58:00,
2013-01-20 08:03:00,52.5,29.0,30.12,West,270,0.0,1.4,40,0.00,,,0.00,Rainwise IP-100,2013-01-20 16:03:00,
2013-01-20 08:08:00,54.0,29.0,30.12,West,270,0.0,0.0,39,0.00,,,0.00,Rainwise IP-100,2013-01-20 16:08:00,
2013-01-20 08:13:00,55.2,31.0,30.12,ENE,67,0.0,2.6,38,0.00,,,0.00,Rainwise IP-100,2013-01-20 16:13:00,
2013-01-20 08:18:00,55.5,32.0,30.12,ENE,67,0.0,0.0,39,0.00,,,0.00,Rainwise IP-100,2013-01-20 16:18:00,
2013-01-20 08:23:00,55.7,33.0,30.12,ENE,67,0.0,0.0,42,0.00,,,0.00,Rainwise IP-100,2013-01-20 16:23:00,
2013-01-20 08:28:00,56.5,33.0,30.12,ENE,67,0.0,0.0,42,0.00,,,0.00,Rainwise IP-100,2013-01-20 16:28:00,
2013-01-20 08:33:00,57.9,35.0,30.11,ENE,67,0.0,0.0,40,0.00,,,0.00,Rainwise IP-100,2013-01-20 16:33:00,
2013-01-20 08:38:00,59.1,33.0,30.12,ENE,67,0.0,0.0,38,0.00,,,0.00,Rainwise IP-100,2013-01-20 16:38:00,
2013-01-20 08:43:00,59.9,32.0,30.12,ENE,67,1.9,2.1,35,0.00,,,0.00,Rainwise IP-100,2013-01-20 16:43:00,
2013-01-20 08:48:00,60.5,33.0,30.12,ENE,67,0.0,2.3,35,0.00,,,0.00,Rainwise IP-100,2013-01-20 16:48:00,
2013-01-20 08:53:00,60.6,35.0,30.12,ENE,67,0.0,1.2,37,0.00,,,0.00,Rainwise IP-100,2013-01-20 16:53:00,
2013-01-20 08:58:00,60.9,33.0,30.12,ENE,67,0.0,1.6,36,0.00,,,0.00,Rainwise IP-100,2013-01-20 16:58:00,
2013-01-20 09:03:00,61.5,35.0,30.13,ENE,67,0.0,1.4,36,0.00,,,0.00,Rainwise IP-100,2013-01-20 17:03:00,
2013-01-20 09:08:00,61.8,35.0,30.12,ENE,67,0.0,1.2,35,0.00,,,0.00,Rainwise IP-100,2013-01-20 17:08:00,
2013-01-20 09:13:00,62.4,33.0,30.13,ENE,67,0.0,1.6,34,0.00,,,0.00,Rainwise IP-100,2013-01-20 17:13:00,
2013-01-20 09:18:00,63.2,35.0,30.12,ENE,67,0.0,1.4,34,0.00,,,0.00,Rainwise IP-100,2013-01-20 17:18:00,
2013-01-20 09:23:00,64.1,35.0,30.13,ENE,67,0.0,2.1,33,0.00,,,0.00,Rainwise IP-100,2013-01-20 17:23:00,
2013-01-20 09:28:00,64.9,33.0,30.12,ENE,67,0.0,0.0,31,0.00,,,0.00,Rainwise IP-100,2013-01-20 17:28:00,
2013-01-20 09:33:00,65.7,33.0,30.13,ENE,67,0.0,1.4,30,0.00,,,0.00,Rainwise IP-100,2013-01-20 17:33:00,
2013-01-20 09:38:00,66.2,35.0,30.13,SSE,157,1.4,3.0,30,0.00,,,0.00,Rainwise IP-100,2013-01-20 17:38:00,
2013-01-20 09:43:00,66.5,33.0,30.13,South,180,1.2,3.0,29,0.00,,,0.00,Rainwise IP-100,2013-01-20 17:43:00,
2013-01-20 09:48:00,67.0,32.0,30.13,South,180,1.4,3.0,27,0.00,,,0.00,Rainwise IP-100,2013-01-20 17:48:00,
2013-01-20 09:53:00,67.6,31.0,30.12,SSE,157,0.0,2.8,25,0.00,,,0.00,Rainwise IP-100,2013-01-20 17:53:00,
2013-01-20 09:58:00,68.4,31.0,30.13,SSE,157,1.2,2.3,24,0.00,,,0.00,Rainwise IP-100,2013-01-20 17:58:00,
2013-01-20 10:03:00,69.0,29.0,30.13,SSE,157,0.0,1.6,23,0.00,,,0.00,Rainwise IP-100,2013-01-20 18:03:00,
2013-01-20 10:08:00,69.6,31.0,30.12,SSE,157,0.0,0.0,23,0.00,,,0.00,Rainwise IP-100,2013-01-20 18:08:00,
2013-01-20 10:13:00,69.9,31.0,30.12,SSE,157,1.9,2.8,23,0.00,,,0.00,Rainwise IP-100,2013-01-20 18:13:00,
2013-01-20 10:18:00,70.0,31.0,30.12,SE,135,2.3,3.5,23,0.00,,,0.00,Rainwise IP-100,2013-01-20 18:18:00,
2013-01-20 10:23:00,70.2,31.0,30.12,SSE,157,0.0,3.3,23,0.00,,,0.00,Rainwise IP-100,2013-01-20 18:23:00,
2013-01-20 10:28:00,70.6,31.0,30.12,SSW,202,1.2,4.2,22,0.00,,,0.00,Rainwise IP-100,2013-01-20 18:28:00,
2013-01-20 10:33:00,71.3,29.0,30.11,South,180,0.0,2.3,21,0.00,,,0.00,Rainwise IP-100,2013-01-20 18:33:00,
2013-01-20 10:38:00,71.9,29.0,30.11,SSE,157,2.1,3.0,20,0.00,,,0.00,Rainwise IP-100,2013-01-20 18:38:00,
2013-01-20 10:44:00,71.9,29.0,30.11,SSE,157,0.0,3.7,20,0.00,,,0.00,Rainwise IP-100,2013-01-20 18:44:00,
2013-01-20 10:49:00,71.7,29.0,30.11,SE,135,1.6,3.7,20,0.00,,,0.00,Rainwise IP-100,2013-01-20 18:49:00,
2013-01-20 10:54:00,71.8,29.0,30.10,South,180,2.8,2.8,20,0.00,,,0.00,Rainwise IP-100,2013-01-20 18:54:00,
2013-01-20 10:59:00,72.1,29.0,30.10,SSW,202,2.1,3.3,20,0.00,,,0.00,Rainwise IP-100,2013-01-20 18:59:00,
2013-01-20 11:04:00,72.3,29.0,30.10,SSE,157,1.6,4.4,20,0.00,,,0.00,Rainwise IP-100,2013-01-20 19:04:00,
2013-01-20 11:09:00,72.5,29.0,30.09,South,180,0.0,3.3,20,0.00,,,0.00,Rainwise IP-100,2013-01-20 19:09:00,
2013-01-20 11:14:00,72.7,29.0,30.09,SE,135,2.1,2.3,20,0.00,,,0.00,Rainwise IP-100,2013-01-20 19:14:00,
2013-01-20 11:19:00,73.2,29.0,30.09,South,180,0.0,2.6,19,0.00,,,0.00,Rainwise IP-100,2013-01-20 19:19:00,
2013-01-20 11:24:00,74.1,28.0,30.08,South,180,0.0,3.7,18,0.00,,,0.00,Rainwise IP-100,2013-01-20 19:24:00,
2013-01-20 11:29:00,75.0,31.0,30.08,South,180,0.0,2.6,19,0.00,,,0.00,Rainwise IP-100,2013-01-20 19:29:00,
2013-01-20 11:34:00,75.6,29.0,30.08,SSE,157,3.3,3.3,18,0.00,,,0.00,Rainwise IP-100,2013-01-20 19:34:00,
2013-01-20 11:39:00,75.6,28.0,30.07,SSW,202,1.4,4.7,17,0.00,,,0.00,Rainwise IP-100,2013-01-20 19:39:00,
2013-01-20 11:44:00,75.4,26.0,30.07,SSW,202,2.6,3.5,16,0.00,,,0.00,Rainwise IP-100,2013-01-20 19:44:00,
2013-01-20 11:49:00,75.7,24.0,30.06,South,180,2.3,3.3,15,0.00,,,0.00,Rainwise IP-100,2013-01-20 19:49:00,
2013-01-20 11:54:00,76.1,26.0,30.06,SSW,202,2.6,4.0,15,0.00,,,0.00,Rainwise IP-100,2013-01-20 19:54:00,
2013-01-20 11:59:00,76.3,24.0,30.06,SSW,202,2.6,3.7,14,0.00,,,0.00,Rainwise IP-100,2013-01-20 19:59:00,
2013-01-20 12:04:00,76.4,26.0,30.05,WSW,247,3.3,4.4,15,0.00,,,0.00,Rainwise IP-100,2013-01-20 20:04:00,
2013-01-20 12:09:00,76.1,24.0,30.05,SSW,202,2.3,5.8,14,0.00,,,0.00,Rainwise IP-100,2013-01-20 20:09:00,
2013-01-20 12:14:00,75.9,24.0,30.04,SSW,202,3.3,4.2,14,0.00,,,0.00,Rainwise IP-100,2013-01-20 20:14:00,
2013-01-20 12:19:00,75.8,23.0,30.04,SSW,202,4.2,6.1,13,0.00,,,0.00,Rainwise IP-100,2013-01-20 20:19:00,
2013-01-20 12:24:00,75.6,21.0,30.04,WNW,292,1.2,5.8,12,0.00,,,0.00,Rainwise IP-100,2013-01-20 20:24:00,
2013-01-20 12:29:00,75.5,21.0,30.04,South,180,2.1,5.6,12,0.00,,,0.00,Rainwise IP-100,2013-01-20 20:29:00,
2013-01-20 12:34:00,75.8,21.0,30.03,SSW,202,2.8,4.9,12,0.00,,,0.00,Rainwise IP-100,2013-01-20 20:34:00,
2013-01-20 12:39:00,75.8,21.0,30.03,SSW,202,4.4,6.8,12,0.00,,,0.00,Rainwise IP-100,2013-01-20 20:39:00,
2013-01-20 12:44:00,75.5,18.0,30.03,SSE,157,1.6,6.5,11,0.00,,,0.00,Rainwise IP-100,2013-01-20 20:44:00,
2013-01-20 12:49:00,75.1,18.0,30.03,SSW,202,3.7,6.5,11,0.00,,,0.00,Rainwise IP-100,2013-01-20 20:49:00,
2013-01-20 12:54:00,75.1,18.0,30.02,SSW,202,4.9,7.0,11,0.00,,,0.00,Rainwise IP-100,2013-01-20 20:54:00,
2013-01-20 12:59:00,75.2,21.0,30.02,SSW,202,4.2,6.3,12,0.00,,,0.00,Rainwise IP-100,2013-01-20 20:59:00,
2013-01-20 13:04:00,75.2,21.0,30.02,SSW,202,3.5,7.2,12,0.00,,,0.00,Rainwise IP-100,2013-01-20 21:04:00,
2013-01-20 13:09:00,75.3,21.0,30.02,SSW,202,4.0,6.3,12,0.00,,,0.00,Rainwise IP-100,2013-01-20 21:09:00,
2013-01-20 13:14:00,75.5,21.0,30.01,SSW,202,4.4,6.1,12,0.00,,,0.00,Rainwise IP-100,2013-01-20 21:14:00,
2013-01-20 13:19:00,75.6,21.0,30.01,SSW,202,3.7,7.7,12,0.00,,,0.00,Rainwise IP-100,2013-01-20 21:19:00,
2013-01-20 13:24:00,75.7,21.0,30.01,SSW,202,5.1,5.6,12,0.00,,,0.00,Rainwise IP-100,2013-01-20 21:24:00,
2013-01-20 13:29:00,75.8,18.0,30.00,SSW,202,4.2,6.8,11,0.00,,,0.00,Rainwise IP-100,2013-01-20 21:29:00,
2013-01-20 13:34:00,76.0,18.0,30.00,SSW,202,4.7,7.5,11,0.00,,,0.00,Rainwise IP-100,2013-01-20 21:34:00,
2013-01-20 13:39:00,76.1,18.0,30.00,SSW,202,4.9,7.0,11,0.00,,,0.00,Rainwise IP-100,2013-01-20 21:39:00,
2013-01-20 13:44:00,76.3,18.0,30.00,SSW,202,3.5,7.0,11,0.00,,,0.00,Rainwise IP-100,2013-01-20 21:44:00,
2013-01-20 13:49:00,76.2,18.0,30.00,SSW,202,2.6,7.0,11,0.00,,,0.00,Rainwise IP-100,2013-01-20 21:49:00,
2013-01-20 13:54:00,76.2,21.0,30.00,SSW,202,4.2,7.2,12,0.00,,,0.00,Rainwise IP-100,2013-01-20 21:54:00,
2013-01-20 13:59:00,76.2,21.0,30.00,WSW,247,2.3,5.4,12,0.00,,,0.00,Rainwise IP-100,2013-01-20 21:59:00,
2013-01-20 14:04:00,76.2,21.0,30.00,SSW,202,3.7,6.3,12,0.00,,,0.00,Rainwise IP-100,2013-01-20 22:04:00,
2013-01-20 14:09:00,76.2,18.0,29.99,SSW,202,5.6,5.6,11,0.00,,,0.00,Rainwise IP-100,2013-01-20 22:09:00,
2013-01-20 14:14:00,76.3,18.0,30.00,SSW,202,4.0,6.5,11,0.00,,,0.00,Rainwise IP-100,2013-01-20 22:14:00,
2013-01-20 14:19:00,76.4,16.0,29.99,SSW,202,3.7,6.5,10,0.00,,,0.00,Rainwise IP-100,2013-01-20 22:19:00,
2013-01-20 14:24:00,76.4,18.0,30.00,SSW,202,3.0,7.9,11,0.00,,,0.00,Rainwise IP-100,2013-01-20 22:24:00,
2013-01-20 14:29:00,76.4,18.0,30.00,SE,135,0.0,5.4,11,0.00,,,0.00,Rainwise IP-100,2013-01-20 22:29:00,
2013-01-20 14:34:00,76.6,18.0,29.99,SSW,202,1.6,7.0,11,0.00,,,0.00,Rainwise IP-100,2013-01-20 22:34:00,
2013-01-20 14:39:00,76.6,16.0,29.99,South,180,4.0,7.0,10,0.00,,,0.00,Rainwise IP-100,2013-01-20 22:39:00,
2013-01-20 14:44:00,76.3,16.0,29.99,WSW,247,4.4,7.9,10,0.00,,,0.00,Rainwise IP-100,2013-01-20 22:44:00,
2013-01-20 14:49:00,76.2,16.0,29.99,SSW,202,1.2,7.5,10,0.00,,,0.00,Rainwise IP-100,2013-01-20 22:49:00,
2013-01-20 14:54:00,76.2,14.0,29.99,SSW,202,6.1,7.0,9,0.00,,,0.00,Rainwise IP-100,2013-01-20 22:54:00,
2013-01-20 14:59:00,76.3,16.0,29.99,SSW,202,4.4,6.8,10,0.00,,,0.00,Rainwise IP-100,2013-01-20 22:59:00,
2013-01-20 15:04:00,75.8,16.0,29.99,SSW,202,3.0,7.0,10,0.00,,,0.00,Rainwise IP-100,2013-01-20 23:04:00,
2013-01-20 15:09:00,75.5,18.0,29.99,SSW,202,2.8,6.8,11,0.00,,,0.00,Rainwise IP-100,2013-01-20 23:09:00,
2013-01-20 15:14:00,75.4,21.0,29.99,South,180,2.6,4.9,12,0.00,,,0.00,Rainwise IP-100,2013-01-20 23:14:00,
2013-01-20 15:19:00,75.4,23.0,29.99,SSW,202,3.0,4.2,13,0.00,,,0.00,Rainwise IP-100,2013-01-20 23:19:00,
2013-01-20 15:24:00,75.4,23.0,29.99,SSE,157,3.3,5.1,13,0.00,,,0.00,Rainwise IP-100,2013-01-20 23:24:00,
2013-01-20 15:29:00,75.3,23.0,29.99,SSW,202,2.3,4.2,14,0.00,,,0.00,Rainwise IP-100,2013-01-20 23:29:00,
2013-01-20 15:34:00,75.2,23.0,29.99,SSW,202,1.9,4.2,14,0.00,,,0.00,Rainwise IP-100,2013-01-20 23:34:00,
2013-01-20 15:39:00,75.2,23.0,29.99,SSE,157,0.0,3.0,14,0.00,,,0.00,Rainwise IP-100,2013-01-20 23:39:00,
2013-01-20 15:44:00,74.8,23.0,29.99,West,270,0.0,3.7,14,0.00,,,0.00,Rainwise IP-100,2013-01-20 23:44:00,
2013-01-20 15:49:00,74.0,21.0,29.99,WNW,292,1.4,7.5,13,0.00,,,0.00,Rainwise IP-100,2013-01-20 23:49:00,
2013-01-20 15:54:00,73.4,21.0,29.99,SSW,202,1.2,4.7,13,0.00,,,0.00,Rainwise IP-100,2013-01-20 23:54:00,
2013-01-20 15:59:00,72.7,21.0,30.00,West,270,0.0,2.6,13,0.00,,,0.00,Rainwise IP-100,2013-01-20 23:59:00,
2013-01-20 16:04:00,72.1,21.0,30.00,NW,315,0.0,2.6,14,0.00,,,0.00,Rainwise IP-100,2013-01-21 00:04:00,
2013-01-20 16:09:00,71.6,21.0,30.00,NNW,337,1.4,4.4,14,0.00,,,0.00,Rainwise IP-100,2013-01-21 00:09:00,
2013-01-20 16:14:00,71.1,21.0,30.00,WNW,292,0.0,2.8,14,0.00,,,0.00,Rainwise IP-100,2013-01-21 00:14:00,
2013-01-20 16:19:00,70.7,21.0,30.00,WNW,292,0.0,6.1,14,0.00,,,0.00,Rainwise IP-100,2013-01-21 00:19:00,
2013-01-20 16:24:00,70.5,21.0,30.00,WNW,292,0.0,2.6,14,0.00,,,0.00,Rainwise IP-100,2013-01-21 00:24:00,
2013-01-20 16:29:00,70.0,18.0,30.00,WNW,292,0.0,1.4,14,0.00,,,0.00,Rainwise IP-100,2013-01-21 00:29:00,
2013-01-20 16:34:00,69.4,18.0,30.00,NNW,337,0.0,1.4,14,0.00,,,0.00,Rainwise IP-100,2013-01-21 00:34:00,
2013-01-20 16:39:00,69.1,18.0,30.00,WNW,292,2.1,4.0,14,0.00,,,0.00,Rainwise IP-100,2013-01-21 00:39:00,
2013-01-20 16:44:00,69.1,18.0,30.00,West,270,0.0,4.7,14,0.00,,,0.00,Rainwise IP-100,2013-01-21 00:44:00,
2013-01-20 16:49:00,69.0,18.0,30.00,West,270,2.3,3.3,14,0.00,,,0.00,Rainwise IP-100,2013-01-21 00:49:00,
2013-01-20 16:54:00,69.0,16.0,30.01,WNW,292,0.0,5.6,13,0.00,,,0.00,Rainwise IP-100,2013-01-21 00:54:00,
2013-01-20 16:59:00,68.8,16.0,30.01,NW,315,3.0,3.3,13,0.00,,,0.00,Rainwise IP-100,2013-01-21 00:59:00,
2013-01-20 17:04:00,68.8,16.0,30.01,NW,315,1.6,5.6,12,0.00,,,0.00,Rainwise IP-100,2013-01-21 01:04:00,
2013-01-20 17:09:00,68.7,14.0,30.01,WSW,247,0.0,4.4,12,0.00,,,0.00,Rainwise IP-100,2013-01-21 01:09:00,
2013-01-20 17:14:00,68.4,16.0,30.02,WSW,247,0.0,1.4,13,0.00,,,0.00,Rainwise IP-100,2013-01-21 01:14:00,
2013-01-20 17:19:00,67.7,16.0,30.01,WSW,247,0.0,0.0,13,0.00,,,0.00,Rainwise IP-100,2013-01-21 01:19:00,
2013-01-20 17:24:00,66.8,16.0,30.02,WSW,247,1.4,2.3,14,0.00,,,0.00,Rainwise IP-100,2013-01-21 01:24:00,
2013-01-20 17:29:00,66.1,18.0,30.02,West,270,0.0,1.4,15,0.00,,,0.00,Rainwise IP-100,2013-01-21 01:29:00,
2013-01-20 17:34:00,65.6,16.0,30.02,WNW,292,2.1,3.5,15,0.00,,,0.00,Rainwise IP-100,2013-01-21 01:34:00,
2013-01-20 17:39:00,65.4,16.0,30.02,WNW,292,1.4,3.0,15,0.00,,,0.00,Rainwise IP-100,2013-01-21 01:39:00,
2013-01-20 17:44:00,65.6,16.0,30.03,WNW,292,1.4,3.7,14,0.00,,,0.00,Rainwise IP-100,2013-01-21 01:44:00,
2013-01-20 17:49:00,65.4,16.0,30.02,WNW,292,1.6,1.9,14,0.00,,,0.00,Rainwise IP-100,2013-01-21 01:49:00,
2013-01-20 17:54:00,65.1,16.0,30.03,West,270,0.0,1.6,15,0.00,,,0.00,Rainwise IP-100,2013-01-21 01:54:00,
2013-01-20 17:59:00,64.6,16.0,30.03,West,270,1.6,2.3,15,0.00,,,0.00,Rainwise IP-100,2013-01-21 01:59:00,
2013-01-20 18:04:00,64.5,18.0,30.03,West,270,2.1,3.0,16,0.00,,,0.00,Rainwise IP-100,2013-01-21 02:04:00,
2013-01-20 18:09:00,64.7,18.0,30.03,West,270,0.0,2.3,16,0.00,,,0.00,Rainwise IP-100,2013-01-21 02:09:00,
2013-01-20 18:14:00,64.5,18.0,30.03,West,270,2.3,2.3,16,0.00,,,0.00,Rainwise IP-100,2013-01-21 02:14:00,
2013-01-20 18:19:00,64.0,18.0,30.04,West,270,2.1,3.0,16,0.00,,,0.00,Rainwise IP-100,2013-01-21 02:19:00,
2013-01-20 18:24:00,63.9,16.0,30.03,WSW,247,1.4,3.5,15,0.00,,,0.00,Rainwise IP-100,2013-01-21 02:24:00,
2013-01-20 18:29:00,63.3,18.0,30.04,WSW,247,0.0,1.4,17,0.00,,,0.00,Rainwise IP-100,2013-01-21 02:29:00,
2013-01-20 18:34:00,62.3,18.0,30.04,WSW,247,0.0,2.1,18,0.00,,,0.00,Rainwise IP-100,2013-01-21 02:34:00,
2013-01-20 18:39:00,61.8,18.0,30.04,WSW,247,0.0,0.0,18,0.00,,,0.00,Rainwise IP-100,2013-01-21 02:39:00,
2013-01-20 18:44:00,61.2,18.0,30.04,WSW,247,0.0,1.2,19,0.00,,,0.00,Rainwise IP-100,2013-01-21 02:44:00,
2013-01-20 18:49:00,60.5,21.0,30.04,WSW,247,0.0,1.6,20,0.00,,,0.00,Rainwise IP-100,2013-01-21 02:49:00,
2013-01-20 18:54:00,60.1,21.0,30.05,WSW,247,0.0,1.4,21,0.00,,,0.00,Rainwise IP-100,2013-01-21 02:54:00,
2013-01-20 18:59:00,59.6,21.0,30.05,WSW,247,0.0,0.0,22,0.00,,,0.00,Rainwise IP-100,2013-01-21 02:59:00,
2013-01-20 19:04:00,59.1,21.0,30.05,WSW,247,1.4,1.6,22,0.00,,,0.00,Rainwise IP-100,2013-01-21 03:04:00,
2013-01-20 19:09:00,59.3,21.0,30.05,WSW,247,0.0,1.6,22,0.00,,,0.00,Rainwise IP-100,2013-01-21 03:09:00,
2013-01-20 19:14:00,59.5,23.0,30.05,WSW,247,1.4,1.6,23,0.00,,,0.00,Rainwise IP-100,2013-01-21 03:14:00,
2013-01-20 19:19:00,59.5,21.0,30.05,WSW,247,1.2,1.9,22,0.00,,,0.00,Rainwise IP-100,2013-01-21 03:19:00,
2013-01-20 19:24:00,59.6,21.0,30.06,WSW,247,0.0,1.2,22,0.00,,,0.00,Rainwise IP-100,2013-01-21 03:24:00,
2013-01-20 19:29:00,59.1,23.0,30.05,WSW,247,0.0,1.4,23,0.00,,,0.00,Rainwise IP-100,2013-01-21 03:29:00,
2013-01-20 19:34:00,58.0,23.0,30.06,WSW,247,0.0,0.0,24,0.00,,,0.00,Rainwise IP-100,2013-01-21 03:34:00,
2013-01-20 19:39:00,57.0,23.0,30.06,WSW,247,0.0,1.4,25,0.00,,,0.00,Rainwise IP-100,2013-01-21 03:39:00,
2013-01-20 19:44:00,56.8,23.0,30.06,WSW,247,0.0,0.0,25,0.00,,,0.00,Rainwise IP-100,2013-01-21 03:44:00,
2013-01-20 19:49:00,56.8,21.0,30.06,WSW,247,0.0,0.0,24,0.00,,,0.00,Rainwise IP-100,2013-01-21 03:49:00,
2013-01-20 19:54:00,56.4,23.0,30.06,WSW,247,1.2,1.2,25,0.00,,,0.00,Rainwise IP-100,2013-01-21 03:54:00,
2013-01-20 19:59:00,55.9,23.0,30.06,WSW,247,1.9,2.3,26,0.00,,,0.00,Rainwise IP-100,2013-01-21 03:59:00,
2013-01-20 20:04:00,56.2,23.0,30.06,WSW,247,0.0,2.3,26,0.00,,,0.00,Rainwise IP-100,2013-01-21 04:04:00,
2013-01-20 20:09:00,56.2,23.0,30.06,WSW,247,0.0,1.9,26,0.00,,,0.00,Rainwise IP-100,2013-01-21 04:09:00,
2013-01-20 20:14:00,55.5,23.0,30.06,WSW,247,0.0,0.0,27,0.00,,,0.00,Rainwise IP-100,2013-01-21 04:14:00,
2013-01-20 20:19:00,54.6,23.0,30.07,WSW,247,0.0,0.0,28,0.00,,,0.00,Rainwise IP-100,2013-01-21 04:19:00,
2013-01-20 20:24:00,53.8,24.0,30.06,WSW,247,2.1,2.3,30,0.00,,,0.00,Rainwise IP-100,2013-01-21 04:24:00,
2013-01-20 20:29:00,53.8,23.0,30.06,WSW,247,0.0,2.3,29,0.00,,,0.00,Rainwise IP-100,2013-01-21 04:29:00,
2013-01-20 20:34:00,54.4,23.0,30.06,WSW,247,0.0,1.4,28,0.00,,,0.00,Rainwise IP-100,2013-01-21 04:34:00,
2013-01-20 20:39:00,54.4,23.0,30.06,WSW,247,0.0,2.6,28,0.00,,,0.00,Rainwise IP-100,2013-01-21 04:39:00,
2013-01-20 20:44:00,54.1,23.0,30.06,WSW,247,0.0,1.9,28,0.00,,,0.00,Rainwise IP-100,2013-01-21 04:44:00,
2013-01-20 20:49:00,53.7,23.0,30.06,WSW,247,0.0,1.2,29,0.00,,,0.00,Rainwise IP-100,2013-01-21 04:49:00,
2013-01-20 20:54:00,53.2,23.0,30.06,West,270,0.0,2.3,30,0.00,,,0.00,Rainwise IP-100,2013-01-21 04:54:00,
2013-01-20 20:59:00,53.2,23.0,30.06,West,270,1.9,2.3,30,0.00,,,0.00,Rainwise IP-100,2013-01-21 04:59:00,
2013-01-20 21:00:00,53.3,23.0,30.07,West,270,1.9,2.3,30,0.00,,,0.00,Rainwise IP-100,2013-01-21 05:00:00,
2013-01-20 21:01:00,53.4,23.0,30.06,West,270,0.0,2.3,30,0.00,,,0.00,Rainwise IP-100,2013-01-21 05:01:00,
2013-01-20 21:06:00,53.4,24.0,30.06,West,270,0.0,1.4,31,0.00,,,0.00,Rainwise IP-100,2013-01-21 05:06:00,
2013-01-20 21:11:00,53.0,23.0,30.06,West,270,0.0,1.4,31,0.00,,,0.00,Rainwise IP-100,2013-01-21 05:11:00,
2013-01-20 21:16:00,52.3,23.0,30.06,West,270,0.0,0.0,32,0.00,,,0.00,Rainwise IP-100,2013-01-21 05:16:00,
2013-01-20 21:21:00,51.7,24.0,30.06,West,270,0.0,1.2,34,0.00,,,0.00,Rainwise IP-100,2013-01-21 05:21:00,
2013-01-20 21:26:00,51.2,24.0,30.06,West,270,0.0,0.0,35,0.00,,,0.00,Rainwise IP-100,2013-01-21 05:26:00,
2013-01-20 21:31:00,50.9,24.0,30.07,West,270,1.2,1.2,35,0.00,,,0.00,Rainwise IP-100,2013-01-21 05:31:00,
2013-01-20 21:36:00,51.1,24.0,30.06,West,270,2.1,2.3,35,0.00,,,0.00,Rainwise IP-100,2013-01-21 05:36:00,
2013-01-20 21:41:00,52.4,24.0,30.07,WSW,247,0.0,2.3,33,0.00,,,0.00,Rainwise IP-100,2013-01-21 05:41:00,
2013-01-20 21:46:00,53.0,24.0,30.07,WSW,247,0.0,1.6,32,0.00,,,0.00,Rainwise IP-100,2013-01-21 05:46:00,
2013-01-20 21:51:00,52.3,24.0,30.07,WSW,247,0.0,2.1,33,0.00,,,0.00,Rainwise IP-100,2013-01-21 05:51:00,
2013-01-20 21:56:00,51.7,26.0,30.07,WSW,247,0.0,0.0,35,0.00,,,0.00,Rainwise IP-100,2013-01-21 05:56:00,
2013-01-20 22:01:00,51.5,26.0,30.07,WSW,247,1.6,1.9,36,0.00,,,0.00,Rainwise IP-100,2013-01-21 06:01:00,
2013-01-20 22:06:00,52.9,26.0,30.07,WSW,247,2.1,2.3,34,0.00,,,0.00,Rainwise IP-100,2013-01-21 06:06:00,
2013-01-20 22:11:00,54.3,26.0,30.07,WSW,247,0.0,2.8,32,0.00,,,0.00,Rainwise IP-100,2013-01-21 06:11:00,
2013-01-20 22:17:00,54.4,24.0,30.07,WSW,247,0.0,0.0,31,0.00,,,0.00,Rainwise IP-100,2013-01-21 06:17:00,
2013-01-20 22:22:00,54.2,24.0,30.07,WSW,247,2.3,2.3,31,0.00,,,0.00,Rainwise IP-100,2013-01-21 06:22:00,
2013-01-20 22:27:00,54.5,24.0,30.07,WSW,247,0.0,2.8,30,0.00,,,0.00,Rainwise IP-100,2013-01-21 06:27:00,
2013-01-20 22:32:00,53.5,24.0,30.07,WSW,247,0.0,0.0,32,0.00,,,0.00,Rainwise IP-100,2013-01-21 06:32:00,
2013-01-20 22:37:00,51.8,26.0,30.07,WSW,247,0.0,0.0,35,0.00,,,0.00,Rainwise IP-100,2013-01-21 06:37:00,
2013-01-20 22:42:00,51.0,24.0,30.07,WSW,247,0.0,0.0,35,0.00,,,0.00,Rainwise IP-100,2013-01-21 06:42:00,
2013-01-20 22:47:00,50.6,24.0,30.07,WSW,247,0.0,0.0,34,0.00,,,0.00,Rainwise IP-100,2013-01-21 06:47:00,
2013-01-20 22:52:00,50.6,24.0,30.07,WSW,247,0.0,0.0,34,0.00,,,0.00,Rainwise IP-100,2013-01-21 06:52:00,
2013-01-20 22:57:00,50.2,24.0,30.07,WSW,247,0.0,0.0,35,0.00,,,0.00,Rainwise IP-100,2013-01-21 06:57:00,
2013-01-20 23:02:00,49.5,26.0,30.07,WSW,247,0.0,1.9,38,0.00,,,0.00,Rainwise IP-100,2013-01-21 07:02:00,
2013-01-20 23:07:00,48.9,26.0,30.07,WSW,247,0.0,0.0,39,0.00,,,0.00,Rainwise IP-100,2013-01-21 07:07:00,
2013-01-20 23:12:00,48.1,26.0,30.07,WSW,247,0.0,0.0,41,0.00,,,0.00,Rainwise IP-100,2013-01-21 07:12:00,
2013-01-20 23:17:00,47.4,26.0,30.06,WSW,247,0.0,0.0,42,0.00,,,0.00,Rainwise IP-100,2013-01-21 07:17:00,
2013-01-20 23:22:00,48.2,24.0,30.06,South,180,0.0,1.2,39,0.00,,,0.00,Rainwise IP-100,2013-01-21 07:22:00,
2013-01-20 23:27:00,48.6,26.0,30.06,South,180,0.0,0.0,39,0.00,,,0.00,Rainwise IP-100,2013-01-21 07:27:00,
2013-01-20 23:32:00,47.7,26.0,30.06,South,180,0.0,0.0,42,0.00,,,0.00,Rainwise IP-100,2013-01-21 07:32:00,
2013-01-20 23:37:00,48.2,26.0,30.06,South,180,0.0,0.0,40,0.00,,,0.00,Rainwise IP-100,2013-01-21 07:37:00,
2013-01-20 23:42:00,48.4,26.0,30.06,ESE,112,0.0,2.3,40,0.00,,,0.00,Rainwise IP-100,2013-01-21 07:42:00,
2013-01-20 23:47:00,48.0,26.0,30.06,WSW,247,0.0,2.6,41,0.00,,,0.00,Rainwise IP-100,2013-01-21 07:47:00,
2013-01-20 23:52:00,47.8,26.0,30.05,WSW,247,0.0,0.0,40,0.00,,,0.00,Rainwise IP-100,2013-01-21 07:52:00,
2013-01-20 23:57:00,47.5,24.0,30.05,WSW,247,0.0,0.0,40,0.00,,,0.00,Rainwise IP-100,2013-01-21 07:57:00,